Flag for Canada Weather past 2 weeks in Creighton, Saskatchewan, Canada

Now
59 °F

Dense fog.


Feels Like: 57 °F
Forecast: 49 / 61 °F
Wind: 13 mph from West

Location: The Pas

Current Time: Jul 5, 2015 at 3:24:58 AM

Latest Report: Jul 5, 2015 at 3:00 AM


Visibility: 1 mi

Pressure: 29.76 "Hg

Humidity: 82%

Dew point: 54 °F

Location of CreightonLocation

Historic Weather in Creighton — Graph

°F

Creighton temperature yesterday

Maximum temperature yesterday: 72 °F (at 12:00 AM)
Minimum temperature yesterday: 59 °F (at 11:00 PM)
Average temperature yesterday: 66 °F

Past Weeks' High & Low Weather Summary

 TemperatureHumidityPressure
High88 °F (Jun 28, 5:00 PM)100% (Jun 22, 12:00 AM)30.01 "Hg (Jun 22, 12:00 AM)
Low48 °F (Jun 24, 3:00 AM)25% (Jun 20, 6:00 PM)29.64 "Hg (Jul 4, 5:00 AM)
Average67 °F69%29.86 "Hg
* Reported Jun 20 2:00 AM — Jul 5 2:00 AM, Creighton, Weather by CustomWeather, © 2015

Note: Actual official high and low records may vary slightly from our data, if they occured in-between our weather recording intervals... More about our weather records

Advertising

Creighton weather history for previous 24 hours

 ConditionsComfort  
Time TempWeatherWind HumidityBarometerVisibility
2:00 AM
Sun, Jul 5
59 °FDense fog.8 mph77%29.77 "Hg1 mi
1:00 AM59 °FDense fog.8 mph77%29.77 "Hg1 mi
12:00 AM59 °FDense fog.7 mph77%29.77 "Hg1 mi
11:00 PM
Sat, Jul 4
59 °FDense fog.7 mph77%29.76 "Hg1 mi
10:00 PM63 °FDense fog.10 mph64%29.74 "Hg1 mi
9:00 PM64 °FDense fog.10 mph60%29.73 "Hg1 mi
8:00 PM68 °FDense fog.7 mph53%29.71 "Hg1 mi
7:00 PM70 °FDense fog.10 mph50%29.70 "Hg1 mi
6:00 PM70 °FDense fog.9 mph64%29.73 "Hg1 mi
5:00 PM72 °FDense fog.14 mph53%29.74 "Hg1 mi
4:00 PM70 °FDense fog.9 mph64%29.73 "Hg1 mi
3:00 PM68 °FDense fog.2 mph73%29.71 "Hg1 mi
2:00 PM68 °FDense fog.7 mph64%29.70 "Hg1 mi
1:00 PM68 °FDense fog.7 mph69%29.69 "Hg1 mi
12:00 PM68 °FDense fog.7 mph73%29.68 "Hg1 mi
11:00 AM68 °FDense fog.7 mph78%29.67 "Hg1 mi
10:00 AM64 °FDense fog.8 mph88%29.67 "Hg1 mi
9:00 AM64 °FOvercast.7 mph94%29.65 "Hg2 mi
8:00 AM64 °FOvercast.6 mph88%29.66 "Hg2 mi
7:00 AM63 °FOvercast.3 mph94%29.66 "Hg2 mi
6:00 AM64 °FDense fog.3 mph88%29.66 "Hg1 mi
5:00 AM64 °FOvercast.6 mph88%29.64 "Hg1 mi
4:00 AM64 °FOvercast.9 mph88%29.66 "Hg2 mi
3:00 AM64 °FOvercast.2 mph88%29.65 "Hg2 mi
Weather by CustomWeather, © 2015

See weather overviewHow to use our weather pages